Regional Weather Roundup
Issued by NWS

Home | Current Version | Previous Version | Graphics & Text | Print | Product List | Glossary On
Versions: 1 2 3 4 5 6 7 8 9 10 11 12 13 14 15 16 17 18 19 20 21 22 23 24 25 26 27 28 29 30 31 32 33 34 35 36 37 38 39 40 41 42 43 44 45 46 47 48 49 50
306
ASUS43 KDTX 241001
RWRMI
MICHIGAN HOURLY REGIONAL WEATHER ROUNDUP
NATIONAL WEATHER SERVICE DETROIT/PONTIAC MI
500 AM EST FRI FEB 24 2017

NOTE: "FAIR" INDICATES FEW OR NO CLOUDS BELOW 12,000 FEET WITH NO
SIGNIFICANT WEATHER AND/OR OBSTRUCTION TO VISIBILITY.

MIZ047>049-052>055-059>063-066>070-074>076-081>083-241100-
SOUTHEAST LOWER MICHIGAN

CITY           SKY/WX    TMP DP  RH WIND       PRES   REMARKS
ADRIAN         CLOUDY    41  41 100 E9        29.70S
ALMA           LGT SNOW  32  32  97 NE14G22   29.74F WCI  22
ANN ARBOR      LGT RAIN  40  39  97 NE7       29.70F
BAD AXE        FLURRIES  33  32  96 NE9       29.77F WCI  25
CARO           LGT SNOW  34  32  94 N6        29.78R WCI  29
DETROIT CITY   CLOUDY    39  38  96 NE6       29.75R WCI  35
DETROIT        CLOUDY    41  39  93 NE10      29.73F THUNDER
FLINT          CLOUDY    37  34  89 NE10      29.74F WCI  30
GROSSE ILE     LGT SNOW  39  38  97 N5G17     29.72R
HILLSDALE      DRIZZLE   39  37  93 SE10G17   29.64F WCI  32
HOWELL         LGT RAIN  37  36  93 E8        29.70F WCI  31

CITY           SKY/WX    TMP DP  RH WIND       PRES   REMARKS
JACKSON        CLOUDY    40  37  89 E12       29.65F WCI  33
LAMBERTVILLE   CLOUDY    42  40  92 E9        29.70F
LANSING        LGT RAIN  37  34  89 NE10      29.71F WCI  30
LAPEER         CLOUDY    36  35  96 E6        29.75S WCI  31
MASON          LGT RAIN  38  37  96 E10       29.67F WCI  31
MONROE         LGT RAIN  41  41 100 NE3       29.72R
MT. CLEMENS    CLOUDY    39  39 100 N6        29.74R WCI  34
PONTIAC        CLOUDY    37  35  92 E9        29.72F WCI  30
PORT HOPE        N/A     35  33  92 NE15      29.77F WCI  25
PORT HURON     CLOUDY    36  36 100 NE6       29.75R WCI  31
TRI CITIES     FRZ RAIN  33  31  92 NE16G24   29.78F WCI  23
MIDLAND        MIX PCPN  32  29  90 NE9       29.78R WCI  24
TROY           CLOUDY    39  37  91 NE6       29.77R WCI  35
SAGINAW HB     CLOUDY    34  32  93 NE12      29.78F WCI  25
$$
MIZ043>046-050>051-056>058-064>065-071>073-077>080-241100-
SOUTHWEST LOWER MICHIGAN

CITY           SKY/WX    TMP DP  RH WIND       PRES   REMARKS
BATTLE CREEK   LGT RAIN  41  39  93 SE8G25    29.62F
BENTON HARBOR  CLOUDY    49  46  90 E9        29.55F
BIG RAPIDS     LGT SNOW  33  32  94 E14G22    29.70F WCI  23
COLDWATER      CLOUDY    44  42  95 E12       29.61F
FREMONT        LGT SNOW  35  34  96 E21G29    29.63F WCI  24
HOLLAND        CLOUDY    39  36  89 E14G25    29.62F WCI  31
GRAND RAPIDS   LGT RAIN  36  35  96 E20G25    29.66R WCI  25
IONIA          LGT SNOW  35  33  95 NE15G23   29.69F WCI  25
KALAMAZOO      CLOUDY    44  40  85 NE5       29.62S
LUDINGTON      LGT SNOW  32  32  99 N8        29.74R WCI  25
MARSHALL       LGT RAIN  40  40  98 E9        29.59F WCI  35
MOUNT PLEASANT FLURRIES  32  32  97 NE13      29.75F WCI  23
MUSKEGON       CLOUDY    37  34  89 MISG      29.60F
SOUTH HAVEN    CLOUDY    46  45  97 E15       29.56F
$$
MIZ016>042-241100-
NORTHERN LOWER MICHIGAN

CITY           SKY/WX    TMP DP  RH WIND       PRES   REMARKS
ALPENA         LGT SNOW  32  27  81 N6        29.86R WCI  26
BEAVER ISLAND  CLOUDY    31  24  76 NE9G20    29.85F WCI  23
BELLAIRE       LGT SNOW  29  28  96 NE9       29.81F WCI  21
CADILLAC       CLOUDY    29  26  90 E14       29.72F WCI  18
CHARLEVOIX     LGT SNOW  29  28  93 NE12      29.86F VSB 1   WCI  20
FRANKFORT      CLOUDY    31  28  88 NE10G16   29.76F WCI  22
GAYLORD        SNOW      28  23  81 NE12      29.79F VSB 1/2 WCI  18
GRAYLING       LGT SNOW  28  26  93 NE7       29.80F WCI  21
HARBOR SPRINGS LGT SNOW  29  26  90 NE9G18    29.84F VSB 1   WCI  20
HOUGHTON LAKE  FRZ RAIN  29  26  89 E14       29.76F WCI  18
MANISTEE       FLURRIES  31  28  89 NE10      29.75R WCI  22
OSCODA         LGT SNOW  32  30  93 N9        29.80F WCI  24
PELLSTON       LGT SNOW  30  21  69 NE12      29.86S WCI  20
ROGERS CITY    LGT SNOW  31  28  89 N6        29.87S WCI  25
TRAVERSE CITY  LGT SNOW  30  27  88 NE13G20   29.78F FOG     WCI  20
$$
MIZ007>008-015-241100-
EASTERN UPPER MICHIGAN

CITY           SKY/WX    TMP DP  RH WIND       PRES   REMARKS
KINROSS        CLOUDY    28  20  71 N9        29.88S WCI  19
MACKINAC ISLAN CLOUDY    29  21  70 NE14      29.87R WCI  19
NEWBERRY       CLOUDY    28  20  72 NE9       29.88R WCI  19
S. S. MARIE    CLOUDY    29  19  66 N7        29.88S WCI  22
MUNISING         N/A     30  23  75 NE22      29.91R WCI  17
$$
MIZ004>006-011>014-085-241100-
CENTRAL UPPER MICHIGAN

CITY           SKY/WX    TMP DP  RH WIND       PRES   REMARKS
MANISTIQUE     CLOUDY    30  24  77 N10       29.88S WCI  21
ESCANABA       LGT SNOW  29  27  92 NE10      29.89R FOG     WCI  20
MENOMINEE      LGT SNOW  29  27  92 NE14      29.84F VSB 1   WCI  18
SAWYER-GWINN   CLOUDY    26  22  85 NE17G24   29.87F WCI  13
$$
MIZ001>003-009>011-084-241100-
WESTERN UPPER MICHIGAN

CITY           SKY/WX    TMP DP  RH WIND       PRES   REMARKS
IRON MOUNTAIN  SNOW      28  23  81 NE9       29.82F VSB 1/2 WCI  19
HOUGHTON       CLOUDY    22  13  68 NE14      29.91F WCI   9
COPPER HARBOR    N/A     24  16  71 E16G23    29.97F WCI  11
IRONWOOD       CLOUDY    24  20  84 NE15      29.88S WCI  11
$$

ABBREVIATIONS USED IN REMARKS
   TC - TEMPERATURE IN CELSIUS
  WCI - WIND CHILL INDEX
   HX - HEAT INDEX
  VSB - VISIBILITY





USA.gov is the U.S. government's official web portal to all federal, state and local government web resources and services.